User: anonymous   Login
Location: Unspecified
(0.0000°N, 0.0000°E)
Time: 12:34:55
(UTC+00:00)
Language:

BIROS - Orbit

View from above orbital plane
View from above orbital plane
View from above satellite
View from above satellite

Ground track
Ground track

The orbit data is extracted from the following two-line orbital elements,

1 41604U 16040F   17292.14416125  .00000765  00000-0  37558-4 0  9991
2 41604  97.4483 353.2462 0012540   2.2686 357.8605 15.21049844 73522
Epoch (UTC): 19 October 2017 03:27:35
Eccentricity: 0.0012540
inclination: 97.4483°
perigee height: 494 km
apogee height: 511 km
right ascension of ascending node: 353.2462°
argument of perigee: 2.2686°
revolutions per day: 15.21049844
mean anomaly at epoch: 357.8605°
orbit number at epoch: 7352

The dashed part of the orbit path shows where the satellite is in the earth's shadow,  

DLR